Back to catalog

STARLINK-37505

AliveCommunicationsVLEO
NORAD 100054·PAYLOAD·🇺🇸 United States

Launched Jul 14, 2026 from Cape Canaveral Space Force Station

Loading…

Next Passes (next 24 hours)

TLE

FreshSource: Space-Track

Epoch: Sep 14, 2026, 15:23 UTC

1 A0054U 26161AC  26257.64124931  .00018720  00000-0  56369-3 0  9997
2 A0054  53.1612  24.9052 0001159  90.8426 269.2709 15.34405701  9718

Track STARLINK-37505 in real time with AllMySat

Download on the App Store